Estación municipal de Roda de Ter (Osona, Plana de Vic)

Consulta los datos en tiempo real de la estación municipal de Roda de Ter





Hora UTC 04:30
Temperatura 15.7 ºC
Humedad 90.5 %
Pluja 0.0 mm
Velocidad viento 0.2 km/h
Dirección viento E

Webcam

Datos diarios 2026-09-03



Hora UTC (invierno +1h; verano +2h)
Temperatura (ºC) Humedad (%) Velocidad viento (km/h) Precipitación (mm)
Hora UTC Aire Humedad Vel. Dir. Vel. Max Dir. Intent. máx 5 min.
00:05 18.8 84.0 0.3 NE 0.3 NE 0.0
00:10 18.7 84.4 1.4 NE 2.8 NE 0.0
00:15 18.5 85.0 1.8 ENE 3.2 ENE 0.0
00:20 18.7 84.6 2.0 ENE 2.8 ENE 0.0
00:25 18.4 85.6 1.1 E 6.0 ESE 0.0
00:30 18.4 86.8 4.3 ESE 6.7 ESE 0.0
00:35 18.4 87.1 3.1 ESE 4.9 ESE 0.0
00:40 18.3 87.4 4.3 ESE 5.6 ESE 0.0
00:45 18.4 86.2 2.0 ESE 3.2 ESE 0.0
00:50 17.9 85.8 1.1 ESE 2.5 ESE 0.0
00:55 17.6 86.5 1.6 ESE 2.8 ESE 0.0
01:00 17.7 86.9 0.2 ESE 2.1 ESE 0.0
01:05 17.5 86.8 0.0 NNE 0.0 ESE 0.0
01:10 17.3 88.1 0.0 NNE 0.0 ESE 0.0
01:15 17.3 88.1 0.0 ESE 1.1 ESE 0.0
01:20 17.7 86.5 0.0 NNE 0.0 ESE 0.0
01:25 17.6 86.2 0.0 NNE 0.0 ESE 0.0
01:30 17.0 87.4 0.0 NNE 0.0 ESE 0.0
01:35 16.8 88.3 0.0 NNE 0.0 ESE 0.0
01:40 16.7 88.0 0.0 ESE 1.1 ESE 0.0
01:45 16.4 88.8 0.0 ESE 1.1 ESE 0.0
01:50 16.4 89.1 0.0 NNE 0.0 ESE 0.0
01:55 16.5 89.3 0.0 NNE 0.0 ESE 0.0
02:00 16.6 89.1 0.0 NNE 0.0 ESE 0.0
02:05 16.8 88.4 0.0 NNE 0.0 ESE 0.0
02:10 16.5 88.6 0.0 NNE 0.0 ESE 0.0
02:15 16.4 89.1 0.0 NNE 0.0 ESE 0.0
02:20 16.3 88.9 0.0 NNE 0.0 ESE 0.0
02:25 16.0 89.5 0.0 NNE 0.0 ESE 0.0
02:30 16.3 90.0 0.0 NNE 0.0 ESE 0.0
02:35 16.3 89.3 0.0 NNE 0.0 ESE 0.0
02:40 16.3 89.1 0.0 NNE 0.0 ESE 0.0
02:45 16.1 89.3 0.0 NNE 0.0 ESE 0.0
02:50 15.9 90.0 0.0 NNE 0.0 ESE 0.0
02:55 16.2 89.7 0.0 NNE 0.0 ESE 0.0
03:00 16.1 89.6 0.0 NNE 0.0 ESE 0.0
03:05 16.0 89.4 0.0 NNE 0.0 ESE 0.0
03:10 15.9 89.7 0.0 NNE 0.0 ESE 0.0
03:15 15.8 89.9 0.0 NNE 0.0 ESE 0.0
03:20 15.6 90.1 0.0 NNE 0.0 ESE 0.0
03:25 15.5 90.6 0.0 NNE 0.0 ESE 0.0
03:30 15.5 90.8 0.0 NNE 0.0 ESE 0.0
03:35 15.4 90.5 0.0 NNE 0.0 ESE 0.0
03:40 15.5 91.0 0.0 NNE 0.0 ESE 0.0
03:45 15.5 90.9 0.0 NNE 0.0 ESE 0.0
03:50 15.5 91.0 0.0 NNE 0.0 ESE 0.0
03:55 15.4 90.9 0.0 NNE 0.0 ESE 0.0
04:00 15.4 91.2 0.3 E 2.1 E 0.0
04:05 15.3 90.5 0.5 E 1.4 E 0.0
04:10 15.0 90.9 0.0 E 1.1 E 0.0
04:15 15.2 91.5 0.0 NNE 0.0 E 0.0
04:20 15.5 91.3 0.0 NNE 0.0 E 0.0
04:25 15.5 90.4 0.0 NNE 0.0 E 0.0
04:30 15.7 90.5 0.2 E 1.8 E 0.0
Máxima 18.8 91.5 4.3 ESE 6.7 ESE 0.0
Mínima 15.0 84.0
Total 0.0